Temperature
19 19 19 19 18 18 18 18 18 18 18 18 18 18 18 18 18 18 18 18 18 18 18 18 18 18 18 18 18 18 18 18 18 18 18 18 18 18 18 17 17 17 17
19 19 19 19 18 18 18 18 18 18 18 18 18 18 18 18 18 18 18 18 18 18 18 18 18 18 18 18 18 18 18 18 18 18 18 18 18 18 17 17 17 17 17
19 19 19 19 18 18 18 18 18 18 18 18 18 18 18 18 18 18 18 18 18 18 18 18 18 18 18 18 18 18 18 18 18 18 18 18 18 18 17 17 17 17 17
19 19 19 19 18 18 18 18 18 18 18 18 18 18 18 18 18 18 18 18 18 18 18 18 18 18 18 18 18 18 18 18 18 17 17 17 18 18 17 17 17 17 17
19 19 19 19 19 18 18 18 18 18 18 18 18 18 18 18 18 18 18 18 18 18 18 18 18 18 18 18 18 18 18 18 18 17 17 17 17 18 17 17 17 17 17
19 19 19 19 19 18 18 18 18 18 18 18 18 18 18 18 18 18 18 18 18 18 18 18 18 18 18 18 18 18 18 18 18 17 17 17 18 18 17 17 17 17 17
19 19 19 19 19 19 18 18 18 18 18 18 18 18 18 18 18 18 18 18 18 18 18 18 18 18 18 18 18 18 18 18 18 17 17 18 18 18 17 17 17 17 17
20 19 20 19 19 19 19 19 19 18 18 18 18 18 18 18 18 18 18 18 18 18 18 18 18 18 18 18 18 18 18 18 18 18 18 18 18 18 18 17 17 17 17
21 20 19 19 19 19 19 19 19 19 18 18 18 18 18 18 18 18 18 18 18 18 18 18 18 18 18 18 18 18 18 18 18 18 18 18 18 18 18 17 17 17 17
21 20 19 19 19 19 19 19 19 19 18 18 18 18 18 18 18 18 18 18 18 18 18 18 18 18 18 18 18 18 18 18 18 18 18 18 18 18 18 17 17 17 17
21 20 20 20 19 19 19 19 19 19 18 18 18 18 18 18 18 18 18 18 18 18 18 18 18 18 18 18 18 19 19 19 18 18 18 18 18 18 18 17 17 17 17
21 21 20 20 20 19 19 19 19 18 18 18 18 18 18 18 18 18 18 18 18 18 18 18 18 18 18 18 18 19 19 19 18 18 18 18 18 18 18 18 17 17 17
21 21 20 20 20 20 19 19 19 19 18 18 18 18 18 18 18 18 18 18 18 18 18 18 18 18 18 18 18 19 19 19 18 18 18 18 18 18 18 18 17 17 17
21 21 21 20 20 19 19 19 19 19 19 19 18 18 18 18 18 18 18 18 18 18 18 18 18 18 18 18 19 19 19 19 18 18 18 18 18 18 18 18 17 17 17
21 21 20 20 19 19 19 19 19 19 19 19 19 18 18 18 18 18 18 18 18 18 18 18 18 18 18 18 19 19 19 18 18 18 18 18 18 18 18 18 18 18 17
21 20 20 20 19 19 19 19 19 19 19 19 19 19 18 18 19 18 18 18 19 19 18 18 18 18 18 18 18 19 19 18 18 18 18 18 18 18 18 18 18 18 17
21 20 20 20 19 19 19 19 19 19 19 19 19 19 18 19 19 19 19 19 19 19 19 19 18 18 18 18 18 18 18 18 18 18 18 18 18 18 18 17 18 17 17
21 20 20 20 19 19 19 19 19 19 19 19 19 19 19 19 19 19 19 19 19 19 19 19 19 18 18 18 18 18 18 18 18 18 18 17 17 17 17 17 17 17 17
21 20 20 20 20 19 19 19 19 19 19 19 19 19 19 19 19 19 19 19 19 19 19 19 18 18 18 18 18 18 18 18 18 18 18 18 17 17 17 17 17 17 17
21 20 20 20 20 19 19 19 19 19 19 19 19 19 19 19 19 19 19 19 19 19 19 18 18 18 18 18 18 18 18 18 18 18 18 17 17 17 17 17 17 17 17
21 20 20 20 20 19 19 19 19 19 19 19 19 19 19 18 18 19 18 18 19 18 18 18 18 18 18 18 18 18 18 18 18 18 17 17 17 17 17 17 17 17 16
21 20 20 20 20 20 19 19 19 19 19 19 19 19 19 18 18 19 19 19 18 18 18 18 18 18 18 18 18 18 17 17 17 17 17 17 17 17 17 16 16 16 16
21 21 20 20 20 20 19 19 19 19 19 19 19 19 19 19 19 19 19 18 18 18 18 18 18 18 18 18 18 18 17 17 17 17 17 17 17 17 16 16 16 16 16
22 21 21 20 20 20 20 19 19 19 19 19 19 19 19 19 19 18 18 18 18 18 18 18 18 18 18 18 18 18 18 17 17 16 16 17 16 16 16 16 16 16 15
22 21 21 20 20 20 20 19 19 19 19 19 19 19 19 18 18 18 18 18 18 18 18 18 18 18 18 17 17 18 18 17 17 16 16 16 16 16 16 15 15 15 15
22 22 21 21 20 20 20 19 19 19 19 19 19 19 19 19 18 18 18 18 18 18 18 18 18 17 17 17 17 17 17 17 17 17 16 15 15 15 15 15 15 15 15
Wind_Speed
11 12 14 14 14 14 14 15 16 16 17 17 17 17 17 18 18 18 18 18 18 17 16 16 17 18 18 18 18 18 18 18 18 19 18 17 16 15 14 15 16 15 16
14 14 15 14 14 14 14 15 16 17 17 17 17 17 17 17 17 17 17 17 17 16 16 17 17 17 17 17 17 16 16 16 17 18 18 17 16 14 13 13 15 14 15
15 15 15 14 14 14 15 15 16 16 17 17 17 17 17 17 17 17 17 17 17 17 17 16 16 16 16 16 16 15 14 14 15 17 17 15 15 14 15 16 17 15 14
15 15 15 14 14 14 15 15 16 16 16 16 16 17 17 16 17 17 16 16 16 16 15 15 15 16 16 15 14 13 12 11 11 11 11 14 14 14 14 15 15 14 13
16 16 15 15 15 15 15 15 16 16 16 16 16 16 16 16 16 16 16 15 15 15 15 15 15 15 15 13 12 10 9 8 7 7 10 14 14 14 13 13 13 13 13
16 16 16 15 15 15 15 15 15 15 15 16 16 15 15 16 16 15 15 15 15 15 15 15 15 14 14 12 10 7 5 4 4 6 12 15 14 13 13 13 13 12 12
17 16 16 16 16 15 15 15 15 15 15 15 15 15 15 15 15 15 15 15 15 15 15 14 14 13 13 11 8 5 3 2 3 6 13 15 14 14 13 12 12 11 11
17 16 16 16 16 15 15 15 14 14 14 14 15 15 15 14 14 14 14 14 14 14 14 14 13 12 11 9 6 3 1 3 2 9 15 15 15 14 13 12 11 10 10
15 15 14 15 15 14 14 14 14 14 13 13 13 13 13 13 13 13 13 12 13 12 12 12 11 10 9 7 4 1 2 5 2 7 14 14 15 14 12 11 10 10 9
12 12 13 14 14 13 13 13 12 12 12 11 11 11 11 12 12 12 12 11 11 11 10 10 9 8 7 5 2 1 2 4 1 8 13 14 15 14 12 11 10 9 8
10 9 9 11 11 12 13 13 12 11 10 9 8 8 9 8 10 9 11 11 10 9 9 8 7 6 4 4 3 3 3 4 4 9 12 16 15 13 11 10 9 9 8
9 9 8 9 8 7 9 11 10 9 9 7 7 8 6 5 7 10 12 10 9 8 8 7 6 6 5 5 6 5 4 3 4 9 11 16 14 13 11 10 9 9 8
8 8 9 9 6 5 5 6 6 6 7 7 7 6 5 5 7 9 8 8 7 8 7 8 7 6 5 4 4 5 3 1 5 9 13 15 14 12 11 11 9 8 8
8 7 8 9 7 5 4 3 4 4 4 4 5 4 4 2 2 3 3 6 6 5 5 5 4 3 1 1 1 1 1 2 5 9 12 15 14 12 12 10 10 9 8
7 8 8 8 7 5 4 2 3 3 4 6 5 4 4 3 3 3 1 1 2 3 4 2 2 1 1 0 1 1 2 3 6 8 10 14 14 13 11 10 10 9 9
8 8 8 8 7 5 3 1 1 3 4 4 4 4 3 4 3 2 2 1 0 1 2 2 2 2 2 1 1 2 2 2 4 7 9 11 13 12 12 11 10 9 9
8 7 6 7 7 4 3 1 1 2 4 4 4 4 3 4 2 1 2 2 2 2 3 2 1 1 2 2 1 1 1 1 2 4 7 9 10 11 11 11 10 9 9
8 6 4 6 8 5 3 0 1 2 3 3 4 4 3 3 1 1 1 1 1 1 2 2 1 1 1 1 1 1 1 1 2 3 4 6 9 9 10 11 10 9 9
8 6 4 4 6 5 4 2 1 2 2 1 2 3 3 2 1 1 0 1 0 0 1 1 2 1 1 1 0 1 1 1 1 2 2 4 6 7 9 10 10 9 7
8 7 5 4 5 4 3 2 1 1 1 1 2 2 2 1 1 1 1 1 1 0 1 1 2 1 1 1 1 1 0 1 0 1 2 2 4 5 6 8 8 6 6
9 7 6 5 5 3 2 2 2 2 1 2 2 3 2 1 1 1 1 0 0 0 0 0 1 1 1 2 1 0 1 1 1 1 2 2 3 4 5 6 8 7 5
9 8 7 5 5 4 3 2 1 1 1 1 2 2 1 1 2 1 1 1 1 1 1 1 1 2 2 2 1 1 1 0 2 1 2 2 3 4 5 5 5 5 5
10 9 8 6 6 5 4 3 1 1 1 1 1 2 1 0 1 2 1 1 1 1 0 2 1 2 2 2 2 2 1 1 1 2 2 2 2 3 3 5 7 6 6
10 10 8 7 6 5 4 3 3 3 2 1 1 2 1 1 1 1 2 2 2 2 1 2 0 1 2 2 2 2 1 2 2 1 1 2 2 2 2 3 6 7 7
10 10 9 8 7 5 4 3 2 1 1 1 1 2 0 1 1 1 2 2 1 1 2 2 2 2 2 2 1 1 0 1 2 2 1 0 1 2 3 3 5 6 7
10 10 10 9 7 6 4 4 3 1 1 1 0 1 1 2 1 2 2 2 2 2 2 2 2 2 1 1 2 1 1 1 1 1 1 1 1 1 3 3 3 5 6
Wind_Direction
84 84 75 73 72 73 75 74 75 77 83 86 86 90 92 92 93 95 97 99 99 98 99 101 103 104 105 105 106 106 107 108 110 110 111 111 110 110 112 118 117 109 112
93 91 81 77 77 77 78 79 79 81 84 85 86 89 94 94 95 97 98 98 98 97 100 103 104 105 106 107 108 110 112 113 117 117 116 110 108 109 109 112 111 115 117
95 94 86 81 82 81 83 84 84 83 86 87 87 88 92 93 96 97 96 96 98 98 98 102 105 106 107 108 110 114 118 122 127 130 127 117 111 108 106 105 110 117 117
94 92 87 87 86 85 86 87 87 87 87 88 88 90 93 93 95 95 95 95 95 95 97 101 106 107 108 110 113 118 124 130 139 145 136 120 114 111 110 112 116 119 119
92 92 89 89 90 88 87 88 89 89 89 90 90 90 93 93 94 95 95 94 93 92 94 102 106 110 111 114 118 125 133 141 152 158 118 110 110 121 120 120 120 120 119
100 96 93 92 93 91 90 90 91 91 91 91 90 91 92 92 93 93 93 92 91 89 91 97 102 109 114 117 122 130 142 162 197 156 124 117 120 129 127 126 125 124 123
103 102 100 97 97 93 92 93 96 92 91 92 94 95 92 92 94 94 93 92 90 90 90 95 100 107 114 118 126 137 156 230 219 126 109 110 122 129 128 128 127 127 128
108 107 108 103 99 96 95 93 99 98 96 96 96 96 96 96 96 94 94 94 94 93 93 94 100 107 113 120 131 146 287 319 91 108 107 114 127 129 129 129 130 133 134
109 116 121 117 111 105 102 102 102 103 100 100 102 104 104 103 102 99 99 99 98 97 98 100 102 107 112 118 128 154 316 328 11 122 118 124 133 132 131 132 134 138 139
103 115 126 126 127 125 116 114 114 113 111 111 114 116 117 116 114 114 112 107 105 105 106 106 106 112 118 128 153 241 303 312 230 115 116 128 136 136 138 142 142 143 142
102 107 114 119 131 133 128 128 132 127 125 127 132 135 142 144 136 134 116 119 118 119 119 122 126 132 144 168 198 236 269 264 103 103 114 135 142 144 146 148 148 149 151
109 111 104 103 112 121 123 137 145 141 143 154 149 151 164 146 133 125 127 134 137 138 140 152 158 168 187 189 193 217 249 222 120 111 125 141 146 149 152 155 156 158 160
109 103 108 104 104 104 112 136 138 136 142 154 153 146 141 129 135 134 149 155 164 170 176 171 183 201 197 186 173 185 213 111 93 109 134 144 149 154 157 160 162 166 172
101 99 97 97 86 67 70 96 133 137 138 126 134 122 115 107 101 113 144 159 173 173 171 172 185 192 196 170 148 156 162 90 107 119 142 150 153 158 162 167 172 177 183
114 105 94 91 85 77 52 3 92 107 118 121 114 107 129 126 98 106 111 136 161 139 154 168 168 129 127 116 171 145 101 111 118 128 139 153 156 161 165 172 178 181 185
121 115 112 111 107 106 101 34 33 95 99 105 108 109 112 113 107 123 133 118 136 151 142 138 138 138 137 109 78 72 55 88 115 133 143 157 164 169 174 178 185 191 194
128 121 126 131 125 130 128 157 122 128 114 111 115 108 87 100 120 133 157 189 175 170 145 158 161 141 161 154 137 125 116 131 137 143 155 161 168 178 182 185 189 193 197
131 128 142 130 128 130 123 36 14 78 103 115 128 124 109 111 114 261 213 153 132 179 169 157 184 152 97 94 116 176 119 114 127 139 158 166 169 172 182 188 190 195 202
132 134 133 113 122 132 137 148 122 84 67 107 114 117 134 151 141 258 55 101 246 210 175 197 118 124 126 101 221 199 177 179 173 168 157 159 157 156 162 179 186 187 193
140 140 140 133 121 132 142 156 178 134 166 157 116 119 132 186 193 244 183 187 210 57 35 49 94 104 151 188 258 349 244 214 168 145 154 131 134 140 148 151 162 179 188
147 146 149 152 137 138 151 175 174 168 193 157 154 144 149 238 294 246 330 350 199 194 233 59 117 178 205 179 165 302 347 330 109 138 137 113 101 107 108 119 136 145 153
154 155 156 158 152 163 162 183 181 150 225 127 75 107 150 225 266 252 205 284 340 356 14 261 219 225 236 221 197 186 203 342 28 43 93 115 110 95 95 101 110 117 122
163 165 167 160 157 166 171 179 160 141 283 96 129 136 166 270 338 334 325 330 344 298 277 263 233 243 245 249 232 218 213 174 50 17 47 76 93 92 92 96 92 86 87
164 163 155 155 155 165 176 189 193 186 181 164 132 115 129 114 60 356 355 32 12 348 348 302 355 281 266 271 264 250 230 153 157 144 31 46 70 77 79 80 84 84 85
163 160 155 153 157 165 178 189 210 193 164 138 116 135 147 112 69 42 57 38 17 3 19 347 331 310 291 293 302 290 283 206 191 180 194 170 47 62 91 92 81 78 81
163 159 158 155 160 167 184 185 190 173 133 118 157 175 199 145 89 52 77 38 36 23 11 353 328 324 327 324 296 290 266 237 193 152 173 170 109 56 75 87 101 94 92
Height
1510 1508 1507 1507 1506 1506 1505 1505 1504 1502 1503 1505 1506 1507 1508 1509 1510 1511 1512 1513 1514 1515 1515 1516 1517 1519 1522 1525 1528 1531 1533 1536 1538 1540 1542 1544 1545 1547 1548 1550 1551 1553 1554
1512 1510 1510 1509 1509 1509 1509 1508 1508 1508 1508 1509 1510 1510 1511 1512 1513 1514 1516 1517 1517 1517 1517 1519 1521 1523 1525 1528 1531 1533 1536 1538 1541 1543 1544 1546 1547 1549 1550 1552 1554 1554 1556
1513 1513 1513 1512 1512 1512 1512 1512 1513 1512 1513 1513 1514 1514 1515 1516 1517 1518 1519 1520 1520 1521 1521 1522 1524 1526 1528 1531 1533 1536 1538 1541 1543 1545 1546 1548 1550 1551 1552 1554 1555 1556 1557
1516 1515 1515 1515 1515 1515 1515 1516 1516 1516 1517 1517 1518 1518 1519 1520 1520 1521 1522 1523 1524 1524 1524 1524 1526 1528 1531 1533 1536 1538 1541 1543 1545 1547 1549 1550 1552 1553 1554 1556 1557 1558 1559
1518 1518 1517 1517 1517 1518 1518 1519 1519 1520 1520 1521 1521 1522 1523 1523 1524 1525 1525 1526 1527 1527 1526 1526 1527 1530 1533 1536 1538 1541 1544 1546 1548 1550 1551 1552 1554 1555 1556 1557 1558 1559 1561
1521 1520 1520 1520 1520 1521 1521 1522 1523 1523 1524 1524 1525 1525 1526 1526 1527 1528 1529 1529 1529 1529 1529 1529 1530 1532 1535 1538 1541 1544 1546 1548 1550 1552 1553 1554 1555 1556 1557 1558 1559 1561 1562
1523 1523 1523 1523 1523 1524 1524 1525 1526 1526 1527 1527 1528 1528 1529 1530 1530 1531 1532 1532 1533 1533 1532 1532 1533 1534 1537 1541 1543 1546 1548 1551 1552 1554 1555 1555 1557 1558 1559 1560 1561 1562 1563
1526 1526 1526 1526 1526 1527 1527 1528 1528 1529 1530 1530 1531 1531 1532 1533 1534 1535 1535 1535 1536 1536 1536 1536 1536 1538 1541 1543 1546 1549 1551 1552 1554 1556 1556 1557 1558 1559 1560 1561 1562 1563 1564
1529 1528 1529 1529 1530 1530 1531 1531 1532 1532 1533 1533 1534 1535 1536 1536 1537 1538 1538 1539 1539 1540 1540 1541 1541 1542 1544 1547 1549 1551 1553 1554 1555 1556 1557 1558 1559 1560 1561 1562 1563 1564 1565
1531 1532 1532 1532 1533 1533 1534 1535 1535 1536 1536 1537 1538 1538 1539 1539 1540 1541 1541 1542 1543 1543 1544 1545 1545 1547 1548 1550 1552 1553 1555 1556 1557 1558 1558 1559 1560 1561 1561 1562 1563 1564 1565
1534 1535 1536 1536 1537 1537 1537 1538 1538 1539 1539 1540 1541 1541 1541 1542 1543 1543 1544 1545 1546 1546 1547 1548 1548 1550 1551 1553 1554 1555 1556 1557 1558 1558 1559 1560 1560 1561 1562 1563 1564 1565 1566
1536 1537 1538 1539 1540 1541 1541 1541 1541 1542 1542 1542 1543 1543 1544 1545 1546 1547 1547 1547 1548 1549 1549 1550 1551 1552 1553 1554 1556 1557 1557 1558 1559 1559 1559 1560 1561 1561 1562 1563 1564 1565 1565
1537 1539 1540 1541 1541 1542 1543 1543 1544 1545 1545 1545 1546 1546 1547 1548 1549 1549 1549 1549 1550 1550 1551 1552 1553 1554 1555 1556 1557 1558 1558 1559 1559 1559 1559 1560 1561 1562 1562 1563 1564 1564 1565
1539 1540 1541 1542 1542 1543 1544 1545 1546 1547 1547 1548 1548 1548 1549 1550 1550 1551 1551 1551 1551 1552 1553 1554 1554 1555 1556 1557 1558 1558 1559 1559 1559 1559 1560 1560 1561 1562 1562 1563 1563 1564 1564
1540 1541 1542 1542 1543 1544 1544 1546 1547 1548 1549 1549 1549 1550 1550 1550 1551 1552 1552 1552 1553 1554 1554 1555 1555 1556 1557 1557 1558 1558 1559 1559 1559 1559 1560 1560 1561 1561 1562 1562 1563 1563 1563
1541 1542 1543 1543 1544 1544 1546 1547 1548 1549 1549 1550 1550 1551 1551 1552 1552 1553 1553 1553 1554 1554 1555 1555 1556 1556 1557 1557 1558 1558 1559 1559 1559 1559 1560 1560 1560 1560 1561 1561 1561 1562 1562
1541 1542 1543 1544 1544 1545 1547 1548 1549 1550 1550 1550 1550 1551 1552 1552 1553 1554 1554 1554 1554 1555 1555 1555 1556 1556 1557 1557 1557 1558 1558 1558 1559 1559 1559 1559 1559 1559 1560 1560 1560 1560 1561
1541 1542 1544 1545 1545 1546 1547 1548 1549 1550 1550 1551 1551 1551 1552 1552 1553 1553 1554 1554 1554 1555 1555 1555 1555 1556 1556 1557 1557 1557 1558 1558 1558 1558 1558 1558 1558 1558 1558 1558 1559 1559 1559
1540 1542 1544 1545 1545 1546 1547 1548 1549 1550 1550 1551 1552 1552 1552 1552 1553 1553 1553 1554 1554 1554 1554 1555 1555 1555 1555 1555 1556 1556 1556 1557 1557 1557 1556 1557 1557 1556 1556 1557 1557 1558 1558
1540 1542 1543 1544 1545 1546 1547 1548 1549 1550 1550 1551 1551 1551 1552 1552 1552 1553 1553 1553 1553 1553 1553 1553 1553 1554 1554 1554 1554 1555 1555 1555 1555 1555 1555 1555 1555 1555 1555 1555 1555 1555 1556
1540 1541 1542 1543 1544 1546 1547 1548 1549 1549 1550 1551 1551 1551 1551 1551 1552 1552 1552 1552 1552 1552 1552 1552 1552 1552 1552 1552 1553 1553 1553 1553 1553 1553 1553 1553 1553 1553 1553 1553 1553 1553 1554
1538 1540 1541 1542 1544 1545 1546 1547 1548 1549 1550 1550 1551 1551 1551 1551 1551 1551 1551 1551 1551 1551 1551 1550 1550 1550 1551 1551 1551 1551 1552 1553 1552 1552 1552 1552 1552 1552 1552 1552 1552 1552 1552
1537 1538 1540 1541 1543 1544 1545 1547 1548 1548 1549 1550 1550 1550 1550 1550 1550 1550 1550 1550 1550 1549 1549 1549 1549 1548 1548 1549 1549 1550 1550 1550 1551 1551 1551 1551 1551 1551 1551 1551 1551 1550 1550
1536 1537 1539 1540 1542 1543 1544 1546 1547 1548 1548 1549 1549 1549 1549 1549 1549 1549 1549 1548 1548 1548 1547 1547 1547 1547 1547 1547 1547 1548 1548 1548 1549 1549 1550 1550 1550 1550 1550 1550 1550 1549 1548
1534 1536 1537 1539 1541 1542 1543 1545 1546 1547 1548 1548 1548 1549 1549 1548 1548 1548 1548 1547 1547 1546 1546 1545 1545 1545 1545 1545 1545 1545 1545 1546 1546 1547 1548 1549 1549 1549 1549 1549 1549 1548 1547
1533 1535 1536 1538 1539 1541 1542 1544 1545 1546 1547 1547 1548 1548 1548 1548 1547 1547 1546 1546 1545 1545 1544 1543 1543 1543 1543 1542 1543 1543 1543 1544 1544 1544 1545 1546 1547 1548 1548 1548 1547 1547 1546